Location: *
(32.8140°S, 174.6161°E)
Time: 14:16:08
(UTC+00:00)

OAO 3 Rocket - Pass Details

Date: 10 December 2019
Orbit: 629 x 683 km, 35.0° (Epoch: 19 January)

Event Time Altitude Azimuth Distance (km) Brightness Sun altitude
Exits shadow 16:31:37 - 292° (WNW) 2,267 5.3 -7.1°
Reaches altitude 10° 16:32:01 10° 292° (WNW) 2,120 5.1 -7.1°
Maximum altitude 16:36:59 77° 18° (NNE) 700 3.3 -6.2°
Drops below altitude 10° 16:41:54 10° 103° (ESE) 2,104 7.2 -5.3°
Sets 16:44:17 0° 104° (ESE) 3,010 8.3 -4.9°
